[[{"header":{"parameterUnit":"m.s-1","parameterCategory":1,"la1":30.2991,"la2":30.254,"lo1":-89.0895,"lo2":-89.0444,"dy":0.0017,"dx":0.0017,"nx":28,"ny":28,"refTime":"2024-05-29T21:00:00:Z","depth":0,"parameterNumber":2,"parameterNumberName":"U-component_of_WINDS"},"data":[0,0,0,0,0,0,0,0,0,0,0,0,0,0,0,0,0,0,0,0,0,0,0,0,0,0,0,0,0,0,0,0,0,0,0,0,0,0,0,0,0,0,0,0,0,0,0,0,0,0,0,0,0,0,0,0,0,0,-4.6559,-4.656,0,-4.6624,-4.6625,-4.6626,-4.6604,-4.6603,-4.6602,-4.66,-4.6665,-4.6668,-4.6671,0,0,0,0,0,0,0,0,0,0,0,0,0,-4.6418,-4.6421,-4.6559,-4.656,-4.6561,-4.6624,-4.6625,-4.6626,-4.6605,-4.6603,-4.6601,-4.66,-4.6664,-4.6668,-4.6672,0,0,0,0,0,0,0,0,0,0,0,0,0,-4.6481,-4.6421,-4.6559,-4.6558,-4.6559,-4.6624,-4.6625,-4.6626,-4.6605,-4.6603,-4.6601,-4.6599,-4.6663,-4.6668,-4.6672,-4.6742,0,0,-4.6686,-4.6688,0,0,0,0,0,0,0,0,-4.6477,-4.6486,-4.6557,-4.6558,-4.6559,-4.6604,-4.6599,-4.6665,-4.6605,-4.6587,-4.66,-4.6598,-4.6647,-4.6652,-4.6669,-4.6745,-4.6748,-4.6686,-4.6689,-4.6691,-4.6692,0,0,0,0,0,0,0,-4.6473,-4.6483,-4.6585,-4.6558,-4.6559,-4.6554,-4.6561,-4.6611,-4.6628,-4.6589,-4.6587,-4.6595,-4.6647,-4.6665,-4.667,-4.6749,-4.6686,-4.669,-4.6693,-4.6695,-4.6887,-4.6889,0,0,0,0,0,0,-4.6468,-4.6479,-4.6583,-4.6587,-4.6512,-4.6559,-4.6566,-4.6592,-4.6627,-4.6631,-4.6597,-4.6594,-4.6658,-4.6665,-4.6673,-4.6757,-4.6691,-4.6695,-4.6698,-4.6885,-4.6887,-4.689,0,0,0,0,0,0,-4.6465,-4.6477,-4.658,-4.6533,-4.6546,-4.6563,-4.6592,-4.6594,-4.6612,-4.6634,-4.6636,-4.6612,-4.6657,-4.6666,-4.6725,-4.6759,-4.6697,-4.6701,-4.6882,-4.6885,-4.6889,-4.6926,0,0,0,0,0,0,-4.6461,-4.6476,-4.6503,-4.6534,-4.6548,-4.6632,-4.6594,-4.6597,-4.662,-4.6617,-4.6649,-4.6652,-4.6656,-4.6719,-4.673,-4.6764,-4.6705,-4.6879,-4.6883,-4.6888,-4.6921,-4.693,-4.6937,0,0,0,0,0,-4.6456,-4.651,-4.6504,-4.6517,-4.6582,-4.6633,-4.6642,-4.6645,-4.6623,-4.665,-4.6664,-4.6651,-4.6754,-4.6725,-4.6737,-4.6773,-4.6877,-4.6882,-4.6887,-4.6918,-4.6928,-4.6937,0,0,0,0,0,0,-4.6481,-4.6514,-4.6508,-4.6573,-4.6601,-4.663,-4.6663,-4.6656,-4.669,-4.6685,-4.6688,-4.6696,-4.6756,-4.6771,-4.6738,-4.6844,-4.6812,-4.682,-4.6831,-4.6841,-4.6849,-4.6843,-4.6709,0,0,0,0,0,-4.6495,-4.6535,-4.6561,-4.6616,-4.6631,-4.6645,-4.6668,-4.6668,-4.6697,-4.6708,-4.6726,-4.6755,-4.6793,-4.6818,-4.6855,-4.6925,-4.6931,-4.6956,-4.6964,-4.697,-4.6976,-4.7015,-4.7026,-4.6908,-4.6907,-4.6907,0,0,-4.6522,-4.6545,-4.657,-4.6622,-4.6643,-4.6684,-4.6655,-4.6699,-4.6729,-4.6715,-4.6771,-4.6787,-4.6818,-4.6883,-4.6912,-4.6897,-4.7011,-4.6977,-4.6982,-4.6985,-4.7021,-4.7033,-4.7043,-4.6911,-4.691,-4.691,0,0,-4.6593,-4.6615,-4.6664,-4.6686,-4.672,-4.6729,-4.6742,-4.6772,-4.6782,-4.6839,-4.6829,-4.6866,-4.6933,-4.6956,-4.6976,-4.706,-4.7049,-4.7072,-4.7113,-4.715,-4.7159,-4.7168,-4.7197,-4.7207,-4.7079,-4.7079,-4.7079,0,-4.6623,-4.6684,-4.6689,-4.6735,-4.6758,-4.6749,-4.6799,-4.682,-4.6864,-4.688,-4.6863,-4.6948,-4.6969,-4.7039,-4.7059,-4.7077,-4.709,-4.7067,-4.7158,-4.7166,-4.7174,-4.7202,-4.7213,-4.7082,-4.7081,-4.7081,-4.7081,0,-4.6719,-4.6762,-4.6798,-4.6841,-4.6869,-4.6916,-4.6929,-4.6956,-4.6956,-4.6968,-4.7027,-4.7052,-4.7094,-4.7112,-4.7111,-4.7183,-4.7172,-4.7157,-4.7124,-4.7188,-4.7214,-4.7224,-4.7085,-4.7084,-4.7083,-4.7083,0,0,-4.6804,-4.6852,-4.6864,-4.6884,-4.6922,-4.6956,-4.7004,-4.7046,-4.7069,-4.7101,-4.7141,-4.7199,-4.7186,-4.7209,-4.7212,-4.7245,-4.7309,-4.7226,-4.7226,-4.7239,-4.739,-4.7399,-4.7412,-4.7304,-4.7306,-4.7308,-4.7387,0,-4.6877,-4.696,-4.6968,-4.7043,-4.7083,-4.7077,-4.7119,-4.7147,-4.716,-4.7196,-4.7211,-4.7252,-4.7231,-4.7246,-4.7278,-4.7295,-4.7339,-4.7289,-4.734,-4.7342,-4.733,-4.7425,-4.7436,-4.7508,-4.7397,-4.7399,-4.74,0,-4.6972,-4.7007,-4.7087,-4.712,-4.7138,-4.7175,-4.7215,-4.725,-4.7282,-4.729,-4.7318,-4.7316,-4.7366,-4.7335,-4.7404,-4.737,-4.7392,-4.7404,-4.7407,-4.7409,-4.7373,-4.7429,-4.7532,-4.7542,-4.7416,-4.7415,-4.7414,0,-4.7025,-4.7092,-4.7149,-4.7166,-4.7207,-4.7234,-4.7252,-4.7283,-4.7308,-4.7344,-4.736,-4.7401,-4.7423,-4.7455,-4.7466,-4.7442,-4.7534,-4.7504,-4.7541,-4.7541,-4.7559,-4.7557,-4.7664,-4.7577,-4.7576,-4.7576,-4.7576,0,-4.7104,-4.7152,-4.7173,-4.7207,-4.7262,-4.7271,-4.7325,-4.7342,-4.737,-4.7408,-4.7406,-4.7442,-4.7454,-4.7493,-4.7501,-4.7557,-4.7567,-4.7575,-4.7576,-4.7574,-4.7573,-4.7586,-4.7581,-4.7579,-4.7578,-4.7578,-4.7577,0,-4.717,-4.7186,-4.7247,-4.7282,-4.7292,-4.7331,-4.7361,-4.7394,-4.7409,-4.7457,-4.7469,-4.7491,-4.7536,-4.755,-4.7605,-4.7611,-4.7676,-4.7673,-4.7664,-4.7664,-4.77,-4.7696,-4.7818,-4.7835,-4.7738,-4.7739,-4.774,0,-4.7218,-4.7256,-4.7295,-4.7321,-4.7341,-4.7382,-4.7408,-4.742,-4.7448,-4.7489,-4.7518,-4.7563,-4.7599,-4.7672,-4.7693,-4.7735,-4.7732,-4.7773,-4.7738,-4.7735,-4.7732,-4.7728,-4.7732,-4.7778,-4.7779,-4.778,-4.778,0,-4.7302,-4.7309,-4.7347,-4.7389,-4.7421,-4.7454,-4.7487,-4.7508,-4.7524,-4.7556,-4.7602,-4.7631,-4.7687,-4.7732,-4.7775,-4.7795,-4.7791,-4.7792,-4.7802,-4.7799,-4.7792,-4.7795,-4.768,-4.7788,-4.7787,-4.7787,-4.7786,-4.7786,-4.736,-4.7393,-4.7427,-4.747,-4.7496,-4.7527,-4.756,-4.758,-4.7619,-4.7665,-4.7671,-4.7721,-4.7755,-4.7813,-4.7835,-4.7874,-4.7863,-4.7878,-4.7882,-4.7885,-4.7888,-4.7788,-4.7882,-4.7882,-4.7882,-4.7882,-4.7882,0,-4.7443,-4.7465,-4.7505,-4.755,-4.7585,-4.758,-4.7616,-4.7645,-4.7689,-4.7721,-4.7757,-4.7812,-4.7856,-4.7882,-4.7926,-4.7953,-4.7952,-4.7964,-4.7961,-4.7966,-4.7896,-4.7881,-4.7964,-4.7964,-4.7964,-4.7964,-4.7964,-4.7964,-4.749,-4.7546,-4.7557,-4.7626,-4.7648,-4.7697,-4.7718,-4.7747,-4.7773,-4.7833,-4.787,-4.7887,-4.7917,-4.7964,-4.8005,-4.8011,-4.8027,-4.804,-4.8045,-4.7979,-4.797,-4.7962,-4.7949,-4.8044,-4.8044,-4.8111,-4.8112,-4.8112]},{"header":{"parameterUnit":"m.s-1","parameterCategory":1,"la1":30.2991,"la2":30.254,"lo1":-89.0895,"lo2":-89.0444,"dy":0.0017,"dx":0.0017,"nx":28,"ny":28,"refTime":"2024-05-29T21:00:00:Z","depth":0,"parameterNumber":3,"parameterNumberName":"V-component_of_WINDS"},"data":[0,0,0,0,0,0,0,0,0,0,0,0,0,0,0,0,0,0,0,0,0,0,0,0,0,0,0,0,0,0,0,0,0,0,0,0,0,0,0,0,0,0,0,0,0,0,0,0,0,0,0,0,0,0,0,0,0,0,3.93,3.93,0,3.9285,3.9285,3.9285,3.9311,3.9311,3.9312,3.9313,3.9291,3.929,3.9289,0,0,0,0,0,0,0,0,0,0,0,0,0,3.9347,3.9346,3.93,3.93,3.93,3.9285,3.9285,3.9285,3.931,3.9312,3.9313,3.9314,3.9292,3.929,3.9289,0,0,0,0,0,0,0,0,0,0,0,0,0,3.9329,3.9346,3.93,3.9311,3.9312,3.9285,3.9285,3.9285,3.931,3.9312,3.9313,3.9314,3.9292,3.929,3.9288,3.9248,0,0,3.9282,3.9281,0,0,0,0,0,0,0,0,3.933,3.9327,3.931,3.931,3.9311,3.9301,3.9294,3.9272,3.931,3.9311,3.9313,3.9315,3.9293,3.9291,3.9285,3.9247,3.9247,3.9282,3.928,3.9279,3.9279,0,0,0,0,0,0,0,3.9331,3.9328,3.9294,3.931,3.931,3.9315,3.9314,3.929,3.9294,3.9311,3.9313,3.9311,3.9294,3.9287,3.9285,3.9246,3.9282,3.928,3.9279,3.9278,3.9176,3.9175,0,0,0,0,0,0,3.9332,3.9329,3.9295,3.9294,3.9324,3.9313,3.9312,3.9303,3.9295,3.9295,3.931,3.9312,3.929,3.9287,3.9284,3.9238,3.9279,3.9278,3.9276,3.9177,3.9176,3.9174,0,0,0,0,0,0,3.9333,3.9328,3.9295,3.9312,3.9308,3.9311,3.9301,3.9302,3.9295,3.9294,3.9295,3.9302,3.9291,3.9287,3.9258,3.9237,3.9277,3.9275,3.9179,3.9177,3.9175,3.9144,0,0,0,0,0,0,3.9334,3.9329,3.9314,3.9311,3.9307,3.9271,3.93,3.9301,3.9292,3.9295,3.9287,3.9287,3.9292,3.9261,3.9256,3.9235,3.9273,3.9181,3.9178,3.9176,3.9147,3.9141,3.9136,0,0,0,0,0,3.9335,3.9305,3.9314,3.9309,3.929,3.9269,3.9267,3.9275,3.9291,3.9276,3.9275,3.9287,3.9241,3.9258,3.9252,3.923,3.9182,3.9179,3.9176,3.9149,3.9142,3.9136,0,0,0,0,0,0,3.9303,3.9305,3.9314,3.9282,3.9276,3.9274,3.9255,3.9267,3.9254,3.9257,3.9265,3.9263,3.9232,3.9228,3.9247,3.9192,3.9214,3.9209,3.9196,3.9189,3.9184,3.9185,3.9271,0,0,0,0,0,3.9293,3.9278,3.9279,3.925,3.9247,3.9252,3.9243,3.925,3.9243,3.924,3.9237,3.9228,3.9211,3.92,3.9184,3.9147,3.9145,3.9129,3.9124,3.9119,3.9115,3.9096,3.9088,3.9164,3.9164,3.9164,0,0,3.927,3.9269,3.9258,3.9244,3.924,3.9223,3.9249,3.923,3.9217,3.9236,3.9209,3.9207,3.9197,3.9164,3.9149,3.916,3.9094,3.9115,3.9112,3.911,3.9091,3.9084,3.9078,3.9161,3.9162,3.9162,0,0,3.922,3.9218,3.9195,3.9191,3.9185,3.9189,3.9183,3.918,3.918,3.9153,3.9168,3.9151,3.9123,3.9116,3.9108,3.9058,3.9068,3.9052,3.9024,3.9005,3.8999,3.8994,3.8976,3.8969,3.9048,3.9048,3.9048,0,3.9192,3.9169,3.9181,3.9161,3.9154,3.9173,3.9149,3.9144,3.9132,3.9126,3.9139,3.9105,3.9099,3.9065,3.9053,3.9046,3.904,3.9053,3.8999,3.8994,3.8989,3.8972,3.8966,3.9046,3.9046,3.9047,3.9047,0,3.9135,3.9119,3.91,3.9092,3.9083,3.9061,3.9068,3.9057,3.9065,3.9067,3.9039,3.9034,3.9019,3.9011,3.9017,3.8978,3.8985,3.8998,3.902,3.898,3.8964,3.8958,3.9044,3.9044,3.9045,3.9045,0,0,3.9064,3.9064,3.9056,3.9053,3.9049,3.9036,3.9014,3.9001,3.8992,3.8983,3.8965,3.8942,3.8955,3.8946,3.8952,3.8935,3.8896,3.8951,3.8951,3.8941,3.8852,3.8842,3.8835,3.8904,3.8902,3.8901,3.8853,0,3.9015,3.8981,3.8991,3.8956,3.8941,3.8959,3.8941,3.8935,3.8937,3.8923,3.8924,3.8907,3.8925,3.8921,3.8905,3.8904,3.8878,3.8908,3.8886,3.8885,3.8888,3.8826,3.8816,3.877,3.8847,3.8846,3.8845,0,3.8954,3.8946,3.891,3.8909,3.8903,3.8886,3.8876,3.8863,3.8857,3.8859,3.8851,3.886,3.8838,3.8861,3.8831,3.8851,3.8842,3.884,3.8839,3.8837,3.8862,3.8823,3.8756,3.8749,3.8836,3.8836,3.8837,0,3.8906,3.8886,3.8862,3.8858,3.8857,3.8845,3.8843,3.8839,3.8831,3.8821,3.8816,3.8802,3.8795,3.8784,3.879,3.8806,3.8758,3.8781,3.8758,3.8758,3.8747,3.8748,3.8678,3.8742,3.8742,3.8742,3.8742,0,3.885,3.8828,3.8841,3.8826,3.8801,3.8812,3.8786,3.8787,3.8783,3.8768,3.8782,3.8767,3.8775,3.8761,3.8765,3.8739,3.8735,3.8736,3.8737,3.8734,3.8734,3.8729,3.8732,3.874,3.874,3.8741,3.8741,0,3.8793,3.88,3.8776,3.8777,3.8777,3.8758,3.8759,3.8745,3.8748,3.8728,3.8724,3.8729,3.8712,3.8717,3.8698,3.8701,3.8669,3.8674,3.8671,3.8673,3.865,3.8652,3.8574,3.8564,3.8634,3.8633,3.8633,0,3.8757,3.874,3.874,3.8732,3.8731,3.8717,3.8709,3.872,3.8711,3.8704,3.869,3.8676,3.8665,3.8638,3.8638,3.8624,3.8629,3.8603,3.8627,3.8625,3.8629,3.863,3.8628,3.8598,3.8597,3.8596,3.8596,0,3.8693,3.8698,3.8687,3.8678,3.867,3.8663,3.8657,3.8649,3.8659,3.8648,3.8633,3.8624,3.8607,3.8592,3.858,3.8577,3.8587,3.8588,3.8583,3.858,3.8579,3.8579,3.8658,3.859,3.8591,3.8591,3.8591,3.8591,3.8645,3.8631,3.863,3.8618,3.8615,3.861,3.8597,3.8599,3.8587,3.8575,3.8582,3.8564,3.8559,3.8544,3.8539,3.8525,3.8534,3.8526,3.8523,3.8521,3.8518,3.8582,3.8522,3.8522,3.8522,3.8523,3.8523,0,3.8582,3.8582,3.8571,3.8564,3.8554,3.8568,3.8562,3.8553,3.8538,3.8533,3.8522,3.8505,3.8491,3.8491,3.8478,3.8466,3.847,3.8462,3.8463,3.8462,3.851,3.8517,3.8458,3.8458,3.8458,3.8458,3.8458,3.8459,3.8548,3.8526,3.8531,3.8508,3.8508,3.8492,3.8488,3.8482,3.8479,3.8459,3.8449,3.845,3.8446,3.8433,3.8421,3.8421,3.8415,3.8405,3.8407,3.8452,3.8458,3.8464,3.8471,3.8404,3.8404,3.836,3.836,3.8359]}]]